Weather Roundup
Issued by NWS Chicago, IL

Home | Current Version | Previous Version | Text Only | Print | Product List | Glossary On
Versions: 1 2 3 4 5 6 7 8 9 10 11 12 13 14 15 16 17 18 19 20 21 22 23 24 25 26 27 28 29 30 31 32 33 34 35 36 37 38 39 40 41 42 43 44 45 46 47 48 49 50
000
NZUS59 KLOT 021710
HRRLOT

CHICAGO AREA WEATHER ROUNDUP
NATIONAL WEATHER SERVICE CHICAGO/ROMEOVILLE IL
1100 AM CST MON MAR 02 2015

NOTE: "FAIR" INDICATES FEW OR NO CLOUDS BELOW 12,000 FEET WITH NO
SIGNIFICANT WEATHER AND/OR OBSTRUCTIONS TO VISIBILITY.

* THESE STATIONS ARE NOT UNDER NWS QUALITY CONTROL. THEY ALSO MAY NOT
  REPORT WEATHER SUCH AS PRECIPITATION OR FOG.

ILZ005-006-012>014-019>023-021800-
NORTHEAST ILLINOIS

CITY           SKY/WX    TMP DP  RH WIND       PRES   REMARKS
OHARE          MOSUNNY   27  10  49 CALM      30.52R
MIDWAY         MOSUNNY   28  12  51 N3        30.53R
AURORA           N/A     21  12  68 NW7       30.53S WCI  12
LANSING*       SUNNY     26  14  59 S3        30.53R
JOLIET*          N/A     25  12  59 CALM      30.53F
WAUKEGAN       SUNNY     25  10  53 CALM      30.51R
DUPAGE AIRPORT SUNNY     27  12  53 N5        30.51R WCI  22
WHEELING       SUNNY     26  10  50 NW3       30.53R
KANKAKEE*      SUNNY     22  14  71 SW3       30.55R
MORRIS*        SUNNY     20  14  76 CALM      30.54S
LEWIS AIRPORT* SUNNY     25  13  60 CALM      30.52F
NORTHERLY IS     N/A     26  13  57 NE5         N/A  WCI  21
$$

WIZ051-052-058>065-066-070>072-021800-
SOUTHEAST WISCONSIN

CITY           SKY/WX    TMP DP  RH WIND       PRES   REMARKS
MILWAUKEE      MOSUNNY   26   8  46 NW8       30.50R WCI  18
KENOSHA*       SUNNY     22  11  62 NW7       30.50S WCI  13
RACINE*        SUNNY     24   9  52 CALM      30.51S
BURLINGTON     SUNNY     23   8  52 CALM      30.50S
WAUKESHA       SUNNY     19   9  63 NW7       30.50R WCI  10
WEST BEND      SUNNY     25   9  50 NW3       30.48S
$$

INZ001>003-010>013-019-020-021800-
NORTHWEST INDIANA

CITY           SKY/WX    TMP DP  RH WIND       PRES   REMARKS
GARY*          MOSUNNY   28  12  50 N7        30.54R WCI  21
MICHIGAN CITY* NOT AVBL
RENSSELAER*    NOT AVBL
VALPARAISO       N/A     27  15  61 CALM      30.52R
$$

LMZ740>746-021800-
SOUTHERN LAKE MICHIGAN

STATION/POSITION TIME  SKY/WX   TEMP WIND        PRES    VSBY
                                AIR  DIR/SP/G
                 (UTC)          (F)  (DEG/KT/KT) (MB)    (MI)
HARRISON CRIB    1700            23  360/  5/  6   N/A
BURNHAM HARBOR   1700            27   40/  4/  6   N/A
CALUMET HARBOR   1700            26   10/  5/  8 1032.2S
BURNS HARBOR     NOT AVBL
MICHIGAN CITY    1700            28  300/  5/  6   N/A
$$

ABBREVIATIONS USED IN REMARKS
   TC - TEMPERATURE IN CELSIUS
  WCI - WIND CHILL INDEX
   HX - HEAT INDEX
  VSB - VISIBILITY
$$


USA.gov is the U.S. government's official web portal to all federal, state and local government web resources and services.